Flag for Germany Weather past 2 weeks in Kaufbeuren, Bavaria, Germany

Now
54 °F

Cool.


Feels Like: 54 °F
Forecast: 41 / 68 °F
Wind: 1 mph from North

Location: Altenstadt Airport


UV Index: 3 (Moderate)

Visibility: N/A


Pressure: 29.62 "Hg

Humidity: 72%

Dew point: 45 °F

Location of KaufbeurenLocation

Historic Weather in Kaufbeuren

°F

Kaufbeuren temperature yesterday

Maximum temperature yesterday: 55 °F (at 6:20 PM)
Minimum temperature yesterday: 37 °F (at 3:20 AM)
Average temperature yesterday: 46 °F

Past Weeks' High & Low Weather Summary

 TemperatureHumidityPressure
High66 °F (Apr 7, 4:20 PM)100% (Apr 7, 12:20 AM)30.33 "Hg (Apr 7, 12:20 AM)
Low27 °F (Apr 17, 3:20 AM)37% (Apr 17, 3:20 PM)29.62 "Hg (Apr 21, 3:20 AM)
Average44 °F77%30.04 "Hg
* Reported Apr 6 10:20 AM — Apr 21 10:20 AM, Kaufbeuren, Weather by CustomWeather, © 2014

Note: Actual official high and low records may vary slightly from our data, if they occured in-between our weather recording intervals... More about our weather records

Advertising

Historic Weather Conditions — Data for Previous 24 hours

 ConditionsComfort  
Time TempWeatherWind HumidityBarometerVisibility
10:20 AM
Apr 21
54 °FCool.1 mph72%29.62 "HgN/A
9:20 AM50 °FCool.3 mph82%29.62 "HgN/A
8:20 AM45 °FQuite cool.2 mph100%29.62 "HgN/A
7:20 AM43 °FQuite cool.5 mph93%29.62 "HgN/A
6:20 AM43 °FQuite cool.1 mph93%29.62 "HgN/A
5:20 AM41 °FQuite cool.1 mph100%29.62 "HgN/A
4:20 AM43 °FQuite cool.3 mph93%29.62 "HgN/A
3:20 AM41 °FQuite cool.2 mph100%29.62 "HgN/A
2:20 AM43 °FQuite cool.1 mph93%29.65 "HgN/A
1:20 AM45 °FQuite cool.3 mph87%29.65 "HgN/A
12:20 AM45 °FQuite cool.5 mph87%29.68 "HgN/A
11:20 PM
Apr 20
45 °FQuite cool.7 mph87%29.68 "HgN/A
10:20 PM48 °FCool.2 mph82%29.68 "HgN/A
9:20 PM48 °FCool.2 mph82%29.68 "HgN/A
8:20 PM48 °FCool.3 mph82%29.68 "HgN/A
7:20 PM54 °FCool.9 mph67%29.65 "HgN/A
6:20 PM55 °FRefreshingly cool.5 mph59%29.68 "HgN/A
5:20 PM54 °FCool.6 mph67%29.68 "HgN/A
4:20 PM54 °FCool.5 mph67%29.68 "HgN/A
3:20 PM52 °FCool.7 mph72%29.68 "HgN/A
2:20 PM50 °FCool.9 mph71%29.71 "HgN/A
1:20 PM48 °FCool.9 mph82%29.71 "HgN/A
12:20 PM50 °FCool.7 mph88%29.71 "HgN/A
11:20 AM46 °FCool.12 mph100%29.71 "HgN/A
Weather by CustomWeather, © 2014

See weather overview